Tracking 25198 objects as of 16-Jan-2022
HD Live streaming from Space Station
objects crossing your sky now

TEIKYOSAT-4

Track TEIKYOSAT-4 now!
10-day predictions
TEIKYOSAT-4 is classified as:


NORAD ID: 49396
Int'l Code: 2021-102B
Perigee: 559.7 km
Apogee: 586.5 km
Inclination: 97.6 °
Period: 96.0 minutes
Semi major axis: 6944 km
RCS: Unknown
Launch date: November 9, 2021
Source: Japan (JPN)
Launch site: KAGOSHIMA SPACE CENTER UNIVERSITY OF TOKYO (KSCUT)

Uplink (MHz):
Downlink (MHz): 437.450/5831.000
Beacon (MHz): 437.450
Mode: 1k2AFSK/9k6GMSK/115k2FSK CW
Call sign: JS1YHH
Status: Active

aabbcc
Your satellite tracking list
Your tracking list is empty




NASA's NSSDC Master Catalog

Two Line Element Set (TLE):
1 49396U 21102B   22015.91002062  .00000967  00000-0  81553-4 0  9995
2 49396  97.5537  78.5341 0019251  47.5512 312.7336 15.00301803 10174
Source of the keplerian elements: AFSPC